Time,TemperatureF,DewpointF,PressureIn,WindDirection,WindDirectionDegrees,WindSpeedMPH,WindSpeedGustMPH,Humidity,HourlyPrecipIn,Conditions,Clouds,dailyrainin,SolarRadiationWatts/m^2,SoftwareType,DateUTC
2013-07-10 00:01:00,79.0,72.0,-100.00,East,88,6.0,-999.0,79,0.00,,,-99.99,0.000000,,2013-07-10 04:01:00,
2013-07-10 00:11:00,78.0,72.0,-100.00,East,99,4.0,-999.0,81,0.00,,,-99.99,0.000000,,2013-07-10 04:11:00,
2013-07-10 00:22:00,78.0,73.0,-100.00,SE,141,3.0,-999.0,82,0.00,,,-99.99,0.000000,,2013-07-10 04:22:00,
2013-07-10 00:52:00,78.0,74.0,-100.00,SSW,196,2.0,-999.0,86,0.00,,,-99.99,0.000000,,2013-07-10 04:52:00,
2013-07-10 01:02:00,78.0,74.0,-100.00,SSW,195,1.0,-999.0,87,0.00,,,-99.99,0.000000,,2013-07-10 05:02:00,
2013-07-10 01:12:00,78.0,74.0,-100.00,SSW,195,1.0,-999.0,87,0.00,,,-99.99,0.000000,,2013-07-10 05:12:00,
2013-07-10 01:42:00,78.0,74.0,-100.00,WNW,289,1.0,-999.0,89,0.00,,,-99.99,0.000000,,2013-07-10 05:42:00,
2013-07-10 01:53:00,77.0,74.0,-100.00,WNW,298,1.0,-999.0,90,0.00,,,-99.99,0.000000,,2013-07-10 05:53:00,
2013-07-10 02:11:00,77.0,74.0,-100.00,North,1,1.0,-999.0,90,0.00,,,-99.99,0.000000,,2013-07-10 06:11:00,
2013-07-10 02:32:00,76.0,74.0,-100.00,NNW,348,1.0,-999.0,91,0.00,,,-99.99,0.000000,,2013-07-10 06:32:00,
2013-07-10 02:52:00,76.0,74.0,-100.00,North,358,2.0,-999.0,92,0.00,,,-99.99,0.000000,,2013-07-10 06:52:00,
2013-07-10 03:01:00,76.0,74.0,-100.00,North,7,1.0,-999.0,92,0.00,,,-99.99,0.000000,,2013-07-10 07:01:00,
2013-07-10 03:22:00,76.0,73.0,-100.00,North,357,1.0,-999.0,91,0.00,,,-99.99,0.000000,,2013-07-10 07:22:00,
2013-07-10 03:33:00,76.0,74.0,-100.00,North,7,2.0,-999.0,92,0.00,,,-99.99,0.000000,,2013-07-10 07:33:00,
2013-07-10 04:23:00,77.0,74.0,-100.00,NNE,32,3.0,-999.0,90,0.00,,,-99.99,0.000000,,2013-07-10 08:23:00,
2013-07-10 04:53:00,77.0,74.0,-100.00,NE,56,2.0,-999.0,90,0.00,,,-99.99,0.000000,,2013-07-10 08:53:00,
2013-07-10 05:02:00,76.0,74.0,-100.00,NNE,32,2.0,-999.0,90,0.00,,,-99.99,0.000000,,2013-07-10 09:02:00,
2013-07-10 05:12:00,76.0,74.0,-100.00,NNE,32,2.0,-999.0,90,0.00,,,-99.99,0.000000,,2013-07-10 09:12:00,
2013-07-10 05:32:00,77.0,74.0,-100.00,NE,36,3.0,-999.0,91,0.00,,,-99.99,0.000000,,2013-07-10 09:32:00,
2013-07-10 05:53:00,77.0,74.0,-100.00,ENE,72,2.0,-999.0,91,0.00,,,-99.99,0.000000,,2013-07-10 09:53:00,
2013-07-10 06:13:00,76.0,74.0,-100.00,East,97,1.0,-999.0,91,0.00,,,-99.99,0.000000,,2013-07-10 10:13:00,
2013-07-10 06:23:00,76.0,74.0,-100.00,NNW,342,1.0,-999.0,91,0.00,,,-99.99,0.000000,,2013-07-10 10:23:00,
2013-07-10 06:32:00,76.0,74.0,-100.00,NNW,342,1.0,-999.0,91,0.00,,,-99.99,0.000000,,2013-07-10 10:32:00,
2013-07-10 06:50:00,-999.0,-99.9,-100.00,NW,304,2.0,-999.0,-999,-99.99,,,-99.99,0.000000,,2013-07-10 10:50:00,
2013-07-10 07:00:00,-999.0,-99.9,-100.00,North,350,1.0,-999.0,-999,-99.99,,,-99.99,0.000000,,2013-07-10 11:00:00,
2013-07-10 07:11:00,76.0,73.0,-100.00,NNE,30,0.0,-999.0,92,0.00,,,-99.99,2.000000,,2013-07-10 11:11:00,
2013-07-10 07:23:00,76.0,73.0,-100.00,NNW,332,1.0,-999.0,92,0.00,,,-99.99,15.000000,,2013-07-10 11:23:00,
2013-07-10 07:33:00,76.0,73.0,-100.00,NNW,332,1.0,-999.0,92,0.00,,,-99.99,15.000000,,2013-07-10 11:33:00,
2013-07-10 07:52:00,76.0,74.0,-100.00,North,359,1.0,-999.0,92,0.00,,,-99.99,40.299999,,2013-07-10 11:52:00,
2013-07-10 08:02:00,76.0,74.0,-100.00,North,359,1.0,-999.0,92,0.00,,,-99.99,40.299999,,2013-07-10 12:02:00,
2013-07-10 08:22:00,77.0,75.0,-100.00,North,2,2.0,-999.0,92,0.00,,,-99.99,53.200001,,2013-07-10 12:22:00,
2013-07-10 08:33:00,77.0,75.0,-100.00,North,2,2.0,-999.0,92,0.00,,,-99.99,53.200001,,2013-07-10 12:33:00,
2013-07-10 08:43:00,78.0,75.0,-100.00,NNW,347,2.0,-999.0,91,0.00,,,-99.99,66.400002,,2013-07-10 12:43:00,
2013-07-10 08:53:00,78.0,75.0,-100.00,North,9,2.0,-999.0,90,0.00,,,-99.99,70.300003,,2013-07-10 12:53:00,
2013-07-10 09:11:00,79.0,75.0,-100.00,North,354,1.0,-999.0,89,0.00,,,-99.99,84.000000,,2013-07-10 13:11:00,
2013-07-10 09:22:00,79.0,76.0,-100.00,NE,55,2.0,-999.0,88,0.00,,,-99.99,143.600006,,2013-07-10 13:22:00,
2013-07-10 09:32:00,79.0,76.0,-100.00,NE,55,2.0,-999.0,88,0.00,,,-99.99,143.600006,,2013-07-10 13:32:00,
2013-07-10 09:52:00,80.0,75.0,-100.00,ENE,75,3.0,-999.0,85,0.00,,,-99.99,134.399994,,2013-07-10 13:52:00,
2013-07-10 10:01:00,80.0,75.0,-100.00,ENE,75,3.0,-999.0,85,0.00,,,-99.99,134.399994,,2013-07-10 14:01:00,
2013-07-10 10:11:00,80.0,75.0,-100.00,ENE,75,3.0,-999.0,85,0.00,,,-99.99,134.399994,,2013-07-10 14:11:00,
2013-07-10 10:53:00,81.0,76.0,-100.00,ENE,68,4.0,-999.0,84,0.00,,,-99.99,255.199997,,2013-07-10 14:53:00,
2013-07-10 11:01:00,81.0,76.0,-100.00,ENE,68,4.0,-999.0,84,0.00,,,-99.99,255.199997,,2013-07-10 15:01:00,
2013-07-10 11:11:00,82.0,76.0,-100.00,NE,51,4.0,-999.0,82,0.00,,,-99.99,336.500000,,2013-07-10 15:11:00,
2013-07-10 11:34:00,83.0,76.0,-100.00,NE,45,4.0,-999.0,81,0.00,,,-99.99,326.200012,,2013-07-10 15:34:00,
2013-07-10 11:42:00,83.0,76.0,-100.00,ENE,75,5.0,-999.0,81,0.00,,,-99.99,268.299988,,2013-07-10 15:42:00,
2013-07-10 11:52:00,83.0,76.0,-100.00,East,90,5.0,-999.0,80,0.00,,,-99.99,241.899994,,2013-07-10 15:52:00,
2013-07-10 12:01:00,83.0,76.0,-100.00,East,90,5.0,-999.0,80,0.00,,,-99.99,241.899994,,2013-07-10 16:01:00,
2013-07-10 12:22:00,82.0,76.0,-100.00,ESE,117,6.0,-999.0,82,0.00,,,-99.99,208.199997,,2013-07-10 16:22:00,
2013-07-10 12:53:00,81.0,76.0,-100.00,SE,132,4.0,-999.0,83,0.00,,,-99.99,423.899994,,2013-07-10 16:53:00,
2013-07-10 13:11:00,82.0,76.0,-100.00,East,84,6.0,-999.0,81,0.00,,,-99.99,638.400024,,2013-07-10 17:11:00,
2013-07-10 13:23:00,84.0,77.0,-100.00,East,81,6.0,-999.0,80,0.00,,,-99.99,637.900024,,2013-07-10 17:23:00,
2013-07-10 13:43:00,84.0,77.0,-100.00,East,98,8.0,-999.0,80,0.00,,,-99.99,880.000000,,2013-07-10 17:43:00,
2013-07-10 13:53:00,84.0,76.0,-100.00,ESE,104,8.0,-999.0,78,0.00,,,-99.99,683.200012,,2013-07-10 17:53:00,
2013-07-10 14:11:00,84.0,76.0,-100.00,ESE,104,8.0,-999.0,76,0.00,,,-99.99,439.899994,,2013-07-10 18:11:00,
2013-07-10 14:32:00,84.0,76.0,-100.00,ESE,118,7.0,-999.0,77,0.00,,,-99.99,280.100006,,2013-07-10 18:32:00,
2013-07-10 14:44:00,84.0,76.0,-100.00,ESE,115,6.0,-999.0,78,0.00,,,-99.99,357.399994,,2013-07-10 18:44:00,
2013-07-10 14:53:00,84.0,76.0,-100.00,SE,141,4.0,-999.0,77,0.00,,,-99.99,424.000000,,2013-07-10 18:53:00,
2013-07-10 15:01:00,84.0,76.0,-100.00,SE,141,4.0,-999.0,77,0.00,,,-99.99,424.000000,,2013-07-10 19:01:00,
2013-07-10 15:11:00,85.0,76.0,-100.00,SE,134,5.0,-999.0,72,0.00,,,-99.99,578.500000,,2013-07-10 19:11:00,
2013-07-10 15:22:00,86.0,75.0,-100.00,SE,145,5.0,-999.0,70,0.00,,,-99.99,479.299988,,2013-07-10 19:22:00,
2013-07-10 15:32:00,86.0,76.0,-100.00,ESE,122,8.0,-999.0,72,0.00,,,-99.99,537.500000,,2013-07-10 19:32:00,
2013-07-10 15:42:00,86.0,76.0,-100.00,ESE,122,8.0,-999.0,72,0.00,,,-99.99,537.500000,,2013-07-10 19:42:00,
2013-07-10 16:11:00,86.0,76.0,-100.00,ESE,122,7.0,-999.0,72,0.00,,,-99.99,555.500000,,2013-07-10 20:11:00,
2013-07-10 16:22:00,85.0,76.0,-100.00,ESE,120,7.0,-999.0,73,0.00,,,-99.99,304.200012,,2013-07-10 20:22:00,
2013-07-10 16:43:00,85.0,76.0,-100.00,East,97,11.0,-999.0,76,0.00,,,-99.99,391.500000,,2013-07-10 20:43:00,
2013-07-10 16:52:00,84.0,76.0,-100.00,ESE,104,10.0,-999.0,78,0.00,,,-99.99,169.399994,,2013-07-10 20:52:00,
2013-07-10 17:11:00,84.0,77.0,-100.00,ESE,110,7.0,-999.0,79,0.00,,,-99.99,126.199997,,2013-07-10 21:11:00,
2013-07-10 17:22:00,83.0,76.0,-100.00,ESE,109,7.0,-999.0,79,0.00,,,-99.99,92.500000,,2013-07-10 21:22:00,
2013-07-10 17:32:00,83.0,76.0,-100.00,ESE,119,7.0,-999.0,80,0.00,,,-99.99,48.700001,,2013-07-10 21:32:00,
2013-07-10 17:52:00,83.0,76.0,-100.00,SE,125,6.0,-999.0,81,0.00,,,-99.99,47.900002,,2013-07-10 21:52:00,
2013-07-10 18:01:00,83.0,76.0,-100.00,SE,125,6.0,-999.0,81,0.00,,,-99.99,47.900002,,2013-07-10 22:01:00,
2013-07-10 18:11:00,81.0,73.0,-100.00,WSW,237,6.0,-999.0,78,0.00,,,-99.99,16.400000,,2013-07-10 22:11:00,
2013-07-10 18:21:00,77.0,72.0,-100.00,West,271,4.0,-999.0,84,0.03,,,-99.99,42.500000,,2013-07-10 22:21:00,
2013-07-10 18:33:00,77.0,72.0,-100.00,West,271,4.0,-999.0,84,0.03,,,-99.99,42.500000,,2013-07-10 22:33:00,
2013-07-10 18:53:00,77.0,73.0,-100.00,East,96,1.0,-999.0,89,0.00,,,-99.99,47.599998,,2013-07-10 22:53:00,
2013-07-10 19:22:00,78.0,75.0,-100.00,WSW,253,1.0,-999.0,89,0.00,,,-99.99,47.299999,,2013-07-10 23:22:00,
2013-07-10 19:52:00,80.0,75.0,-100.00,SE,127,2.0,-999.0,86,0.00,,,-99.99,29.799999,,2013-07-10 23:52:00,
2013-07-10 20:01:00,81.0,75.0,-100.00,SE,131,5.0,-999.0,83,0.00,,,-99.99,20.400000,,2013-07-11 00:01:00,
2013-07-10 20:22:00,81.0,75.0,-100.00,SE,132,5.0,-999.0,79,0.00,,,-99.99,12.900000,,2013-07-11 00:22:00,
2013-07-10 20:32:00,82.0,74.0,-100.00,SE,144,4.0,-999.0,78,0.00,,,-99.99,5.700000,,2013-07-11 00:32:00,
2013-07-10 20:52:00,81.0,74.0,-100.00,SE,142,6.0,-999.0,77,0.00,,,-99.99,0.400000,,2013-07-11 00:52:00,
2013-07-10 21:01:00,81.0,74.0,-100.00,SE,139,6.0,-999.0,79,0.00,,,-99.99,0.000000,,2013-07-11 01:01:00,
2013-07-10 21:22:00,81.0,75.0,-100.00,SE,146,5.0,-999.0,81,0.00,,,-99.99,0.000000,,2013-07-11 01:22:00,
2013-07-10 21:32:00,81.0,75.0,-100.00,SE,135,5.0,-999.0,81,0.00,,,-99.99,0.000000,,2013-07-11 01:32:00,
2013-07-10 22:11:00,81.0,75.0,-100.00,SE,142,2.0,-999.0,82,0.00,,,-99.99,0.000000,,2013-07-11 02:11:00,
2013-07-10 22:32:00,81.0,75.0,-100.00,SSE,150,3.0,-999.0,82,0.00,,,-99.99,0.000000,,2013-07-11 02:32:00,
2013-07-10 22:53:00,80.0,75.0,-100.00,SSE,148,4.0,-999.0,83,0.00,,,-99.99,0.000000,,2013-07-11 02:53:00,
2013-07-10 23:33:00,80.0,74.0,-100.00,ESE,109,2.0,-999.0,83,0.00,,,-99.99,0.000000,,2013-07-11 03:33:00,
2013-07-10 23:53:00,79.0,74.0,-100.00,ENE,65,1.0,-999.0,86,0.00,,,-99.99,0.000000,,2013-07-11 03:53:00,